sat.trackr.live / text

‹ back to catalog

STARLINK-36454

NORAD 67470 · 2026-008AB

PAYLOAD ACTIVE UNKNOWN

§ Identity

Operator
Country
US
Launch date
2026-01-14
Launch site
AFETR
Launch vehicle
Mass (kg)
RCS (m²)

Purposes: comms

External: N2YO · Heavens-Above · Gunter

§ Orbital elements

Epoch: 2026-05-24T23:47:21.968736Z

Period
94.27 min
Inclination
42.9983°
Eccentricity
0.0001935
Mean motion
15.27590765 rev/d
Perigee alt
481.7 km
Apogee alt
484.3 km
Semi-major
6,861.2 km
B*
5.2471e-4
RAAN
134.1145°
Arg perigee
280.7208°
Mean anomaly
79.3426°
Rev number
2,124

§ Raw data

STARLINK-364541 67470U 26008AB  26144.99122649  .00014210  00000+0  52471-3 0  99982 67470  42.9983 134.1145 0001935 280.7208  79.3426 15.27590765 21242

JSON: /api/v1/satellites/67470 · /tle

For live sub-satellite position, see the globe view (requires WebGL).

§ Visibility from observer

Set your observer location to see the next 7 days of passes ≥ 10°. The values pass through the URL so the page stays shareable.

No JS? Fill the form by hand. The geolocation button needs JavaScript.